Regional Weather Roundup
Issued by NWS

Home | Current Version | Previous Version | Graphics & Text | Print | Product List | Glossary On
Versions: 1 2 3 4 5 6 7 8 9 10 11 12 13 14 15 16 17 18 19 20 21 22 23 24 25 26 27
000
ASUS45 KSLC 101910
RWRUT

UTAH REGIONAL WEATHER ROUNDUP
NATIONAL WEATHER SERVICE SALT LAKE CITY UT
1200 PM MST SUN DEC 10 2017

UTZ001>011-023>025-102000-

NORTHERN UTAH

CITY           SKY/WX    TMP DP  RH WIND       PRES   REMARKS
BRIGHAM CITY   MOSUNNY   30  22  72 CALM      30.68S
HILL AFB       SUNNY     32  14  47 SE6       30.64F WCI  27
LOGAN          CLOUDY    22  16  78 CALM      30.69F
OGDEN          SUNNY     33  20  58 N5        30.64F WCI  29
SALT LAKE CITY SUNNY     36  23  59 NW5       30.65F WCI  32
TOOELE VALLEY  SUNNY     30  27  86 NW3       30.67F FOG
WENDOVER       SUNNY     33  18  53 SE3       30.68F
HEBER CITY       N/A     32  12  43 CALM      30.60F
WEST JORDAN    SUNNY     34  22  62 CALM      30.65S

$$

UTZ011>015-024>027-102000-

CENTRAL/NORTHEAST UTAH

CITY           SKY/WX    TMP DP  RH WIND       PRES   REMARKS
PROVO AIRPORT  SUNNY     31  19  61 SW7       30.66F WCI  24
MOAB/CANYONLAN SUNNY     40   9  28 VRB5      30.58F
DELTA          SUNNY     32  14  47 CALM      30.63F
PRICE          SUNNY     39   3  22 S3        30.56F
ROOSEVELT      SUNNY     32   9  37 CALM      30.64F
VERNAL         SUNNY     33  11  39 SE5       30.61F WCI  29

$$

UTZ013>016-019>022-027-102000-

SOUTHERN UTAH

CITY           SKY/WX    TMP DP  RH WIND       PRES   REMARKS
BRYCE CANYON   SUNNY     46 -12   8 NE6       30.57F
CEDAR CITY     SUNNY     36  12  37 CALM      30.57F
MILFORD        SUNNY     35  16  45 NE6       30.60F WCI  30
ST GEORGE      CLEAR     46   9  22 CALM      30.53F
HANKSVILLE     SUNNY     36   9  32 CALM      30.63F
BLANDING         N/A     40   3  21 CALM      30.62F

$$

REGIONAL REPORTS     COLORADO/ARIZONA

CITY           SKY/WX    TMP DP  RH WIND       PRES   REMARKS
CRAIG, CO      SUNNY     28  14  55 SW5       30.58F WCI  23
GRAND JUNCTION SUNNY     40   6  24 S8        30.58F WCI  34
RIFLE, CO      SUNNY     38   4  24 CALM      30.59F
MONTROSE, CO   SUNNY     39   4  23 N5        30.59F
CORTEZ, CO     SUNNY     42   2  18 VRB5      30.54F
COLORADO CITY    N/A     52   1  12 CALM      30.53F
PAGE, AZ       SUNNY     40  16  37 CALM      30.56F
GRAND CANYON   SUNNY     54  -6   8 NE13      30.52F
KINGMAN, AZ    MOSUNNY   57   8  14 N9        30.41F
FLAGSTAFF, AZ  MOSUNNY   46  -2  13 E8        30.52F

$$

REGIONAL REPORTS    NEVADA/IDAHO/WYOMING

CITY           SKY/WX    TMP DP  RH WIND       PRES   REMARKS
LAS VEGAS, NV  MOSUNNY   57   8  14 CALM      30.43F
ELY, NY        SUNNY     41   5  22 CALM      30.58F
ELKO, NV       MOSUNNY   28  19  69 E5        30.61F WCI  23
POCATELLO, ID  CLOUDY    26  20  77 CALM      30.64F
BURLEY, ID     MOSUNNY   24  19  81 CALM      30.62F
FORT BRIDGER,    N/A     47   1  14 W17G26    30.58S
EVANSTON, WY   SUNNY     39   9  29 SW8       30.57F WCI  33
ROCK SPRINGS,  SUNNY     41   5  22 SW16      30.51F

$$




USA.gov is the U.S. government's official web portal to all federal, state and local government web resources and services.